Ringgold, VA

11:29 PM EST on February 12, 2016 (GMT -0500)
Danville Regional

Weather History for KDAN - February, 2012

Change the Weather History Date:

Monday, February 13, 2012

  Actual Average Record
Temperature  
Mean Temperature 33 °F 40 °F  
Max Temperature 49 °F 50 °F 76 °F (1951)
Min Temperature 16 °F 32 °F 11 °F (1955)
Degree Days  
Heating Degree Days 32 25  
Month to date heating degree days 330 332  
Since 1 July heating degree days 2426 2660  
Cooling Degree Days 0 0  
Month to date cooling degree days 0 0  
Year to date cooling degree days 0 0  
Moisture  
Dew Point 14 °F    
Average Humidity 49    
Maximum Humidity 77    
Minimum Humidity 21    
Precipitation  
Precipitation 0.00 in 0.11 in 1.45 in (1972)
Month to date precipitation 0.48 1.44  
Year to date precipitation 2.47 4.86  
Snow  
Snow 0.00 in - - ()
Month to date snowfall 0.0  
Since 1 July snowfall 0.0  
Snow Depth 0.00 in    
Sea Level Pressure  
Sea Level Pressure 30.18 in    
Wind  
Wind Speed 4 mph (WSW)    
Max Wind Speed 12 mph    
Max Gust Speed 17 mph    
Visibility 10 miles    
Events      
T = Trace of Precipitation, MM = Missing Value Source: NWS Daily Summary

Daily Weather History Graph

Daily Weather History Graph

Search for Another Location

Airport or City:

Trip Planner

Search our weather history database for the weather conditions in past years. The results will help you decide how hot, cold, wet, or windy it might be!

Date:

Astronomy

Feb. 13, 2012 Rise Set
Actual Time 7:08 AM EST 5:55 PM EST
Civil Twilight 6:41 AM EST 6:22 PM EST
Nautical Twilight 6:11 AM EST 6:52 PM EST
Astronomical Twilight 5:41 AM EST 7:22 PM EST
Moon No Moon Rise 10:18 AM EST
Length of Visible Light 11h 40m
Length of Day
10h 47m
Waning Gibbous, 62% of the Moon is Illuminated
Feb 13
Waning Gibbous
Feb 14
Last Quarter
Feb 21
New
Feb 29
First Quarter
Mar 8
Full

Hourly Weather History & Observations

Time (EST) Temp. Windchill Dew Point Humidity Pressure Visibility Wind Dir Wind Speed Gust Speed Precip Events Conditions
12:53 AM 28.9 °F 25.2 °F 10.0 °F 45% 30.20 in 10.0 mi West 3.5 mph - N/A   Clear
1:53 AM 26.1 °F 20.5 °F 12.0 °F 55% 30.22 in 10.0 mi West 4.6 mph - N/A   Clear
2:53 AM 28.0 °F 24.2 °F 12.0 °F 51% 30.21 in 10.0 mi West 3.5 mph - N/A   Clear
3:53 AM 23.0 °F 18.4 °F 12.0 °F 63% 30.22 in 10.0 mi South 3.5 mph - N/A   Clear
4:53 AM 21.0 °F 14.6 °F 12.0 °F 68% 30.23 in 10.0 mi WSW 4.6 mph - N/A   Clear
5:53 AM 19.9 °F 14.9 °F 10.9 °F 68% 30.23 in 10.0 mi SW 3.5 mph - N/A   Clear
6:53 AM 17.1 °F - 10.9 °F 77% 30.24 in 10.0 mi Calm Calm - N/A   Clear
7:53 AM 19.9 °F 14.9 °F 14.0 °F 78% 30.27 in 10.0 mi SSW 3.5 mph - N/A   Clear
8:53 AM 30.0 °F 23.2 °F 17.1 °F 59% 30.27 in 10.0 mi West 6.9 mph - N/A   Clear
9:53 AM 35.1 °F 28.6 °F 15.1 °F 44% 30.27 in 10.0 mi West 8.1 mph 17.3 mph N/A   Clear
10:53 AM 37.9 °F 31.5 °F 16.0 °F 41% 30.25 in 10.0 mi West 9.2 mph - N/A   Clear
11:53 AM 41.0 °F 37.1 °F 15.1 °F 35% 30.23 in 10.0 mi WNW 5.8 mph - N/A   Clear
12:53 PM 43.0 °F - 12.9 °F 30% 30.18 in 10.0 mi Calm Calm - N/A   Clear
1:53 PM 46.0 °F 43.9 °F 12.9 °F 26% 30.15 in 10.0 mi Variable 4.6 mph - N/A   Clear
2:53 PM 46.9 °F - 12.0 °F 24% 30.13 in 10.0 mi Variable 5.8 mph - N/A   Clear
3:53 PM 48.0 °F - 10.9 °F 22% 30.12 in 10.0 mi Variable 4.6 mph - N/A   Clear
4:53 PM 48.0 °F - 12.9 °F 24% 30.11 in 10.0 mi WSW 5.8 mph - N/A   Clear
5:53 PM 42.1 °F 40.2 °F 19.0 °F 40% 30.12 in 10.0 mi SSW 3.5 mph - N/A   Clear
6:53 PM 42.1 °F 40.2 °F 14.0 °F 32% 30.11 in 10.0 mi SSW 3.5 mph - N/A   Clear
7:53 PM 37.0 °F - 15.1 °F 41% 30.11 in 10.0 mi Calm Calm - N/A   Clear
8:53 PM 37.0 °F - 14.0 °F 39% 30.11 in 10.0 mi Calm Calm - N/A   Clear
9:53 PM 37.9 °F 35.5 °F 17.1 °F 43% 30.11 in 10.0 mi SSW 3.5 mph - N/A   Mostly Cloudy
10:53 PM 37.9 °F - 17.1 °F 43% 30.12 in 10.0 mi Calm Calm - N/A   Mostly Cloudy
11:53 PM 37.9 °F 35.5 °F 18.0 °F 45% 30.09 in 10.0 mi SW 3.5 mph - N/A   Scattered Clouds